Temperature
16 15 15 15 15 15 15 15 15 15 15 15 15 15 15 15 15 15 15 15 15 15 15 15 14 15 14 14 14 14 14 14 14 14 14 14 14 14 14 14 14 14 14
16 16 15 15 15 15 15 15 15 15 15 15 15 15 15 15 15 15 15 15 15 15 14 14 14 14 14 14 14 14 14 14 14 14 14 14 14 14 14 14 14 14 14
16 15 15 15 15 15 15 15 15 15 15 15 15 15 15 14 14 14 15 15 15 14 14 14 14 14 14 14 14 14 14 14 14 14 14 14 14 13 13 13 13 13 13
16 15 15 15 15 15 15 15 15 15 15 15 15 15 14 14 14 14 14 14 14 14 14 14 14 14 14 14 14 13 13 13 14 14 14 14 13 13 13 13 13 13 13
16 15 15 15 15 15 15 15 15 15 15 14 14 14 14 14 14 14 14 14 14 14 14 14 14 14 14 13 13 13 13 13 13 13 13 13 13 13 13 13 12 12 12
16 15 15 15 15 15 15 15 15 15 14 14 14 14 14 14 14 14 14 14 14 14 14 14 14 14 14 13 13 13 13 13 13 13 13 13 13 13 12 12 12 12 12
16 15 15 15 14 14 14 14 14 14 14 14 14 14 14 14 14 14 14 14 14 14 14 14 14 14 13 13 13 13 13 13 13 13 13 13 13 12 12 12 12 12 12
15 15 15 14 14 14 14 14 14 14 14 14 14 14 13 13 14 14 14 14 14 14 13 13 13 13 13 13 13 13 13 13 13 13 13 13 12 12 12 12 12 12 11
15 14 14 14 14 14 14 14 14 14 14 14 14 14 13 13 13 13 13 13 13 13 13 13 13 13 13 13 13 13 13 13 13 13 12 12 12 12 12 11 11 11 11
14 14 14 14 13 13 13 13 13 13 13 13 13 13 13 13 13 13 13 13 13 13 13 13 13 13 13 13 13 13 13 12 12 12 12 12 12 11 11 11 11 11 11
14 14 13 13 13 13 13 13 13 13 13 13 13 13 13 13 13 13 13 13 13 13 13 13 13 13 13 13 12 12 12 12 12 12 12 12 12 11 11 11 11 11 11
14 13 13 13 13 13 13 13 13 13 13 13 12 13 13 13 13 13 13 13 13 13 13 13 13 12 12 12 12 12 12 12 12 12 12 11 11 11 11 11 11 11 11
13 13 13 13 13 13 13 12 12 12 12 12 12 12 12 12 13 13 13 13 13 12 12 12 12 12 12 12 12 12 12 12 12 11 11 11 11 11 11 10 10 10 10
13 13 13 12 12 12 12 12 12 12 12 12 12 12 12 12 12 12 12 12 12 12 12 12 12 12 12 12 12 12 11 11 11 11 11 11 11 11 10 10 10 10 10
13 13 12 12 12 12 12 12 12 12 12 12 11 12 12 12 12 12 12 12 12 12 12 12 12 12 12 12 11 11 11 11 11 11 11 11 10 10 10 10 10 10 10
12 12 12 12 12 12 11 11 11 11 11 11 11 11 11 12 12 12 12 12 12 12 12 12 12 12 12 11 11 11 11 11 11 11 10 10 10 10 10 10 10 9 9
12 12 12 12 12 11 11 11 11 11 11 11 11 11 11 11 11 12 12 12 12 12 12 12 12 11 11 11 11 11 11 11 11 10 10 10 10 10 10 10 10 9 9
12 12 12 12 11 11 11 11 11 11 11 11 11 11 11 11 11 11 11 11 11 11 11 11 11 11 11 11 11 11 10 10 10 10 10 10 9 9 9 9 9 9 9
12 11 11 11 11 11 11 10 10 10 10 10 10 10 10 11 11 11 11 11 11 11 11 11 11 11 11 11 11 10 10 10 10 10 10 9 9 9 9 9 9 9 9
11 11 11 11 11 10 10 10 10 10 10 10 10 10 10 10 10 10 10 10 10 10 10 10 10 10 10 10 10 10 10 10 10 9 9 9 9 9 9 8 8 8 8
11 11 11 11 10 10 10 10 10 9 9 9 9 9 10 10 10 10 10 10 10 10 10 10 10 10 10 10 9 9 9 9 9 9 9 9 8 8 8 8 8 8 8
10 10 10 10 10 10 10 10 9 9 9 9 9 9 9 9 9 9 9 9 9 9 9 9 9 9 9 9 9 9 8 8 8 8 8 8 8 8 7 7 7 7 7
10 10 10 10 10 10 9 9 9 8 8 8 8 8 9 9 9 9 9 9 9 9 9 9 9 9 9 8 8 8 8 7 7 8 8 8 7 7 7 7 7 7 7
9 9 9 9 9 9 9 9 8 8 8 8 8 8 8 8 8 8 8 8 9 9 9 9 9 9 8 8 8 8 8 7 7 6 7 7 7 7 6 6 6 6 6
9 9 9 9 9 8 8 8 8 8 8 8 8 8 8 8 8 8 8 8 8 8 8 8 8 8 8 8 8 7 7 7 7 6 6 6 6 6 6 6 6 6 6
8 8 8 8 8 8 8 8 8 7 7 7 7 7 7 7 7 7 8 8 8 8 8 8 8 8 8 7 7 7 7 6 6 6 6 5 6 6 6 6 6 5 5
Wind_Speed
5 8 13 12 13 13 14 14 13 13 13 12 12 12 12 12 12 12 13 12 12 12 12 12 12 13 13 13 13 14 14 14 15 15 15 15 14 15 15 14 14 13 14
8 11 14 14 14 14 13 14 13 13 12 12 12 11 11 11 12 12 12 12 12 11 11 11 12 12 12 12 12 13 13 13 14 14 14 14 13 14 13 14 13 12 13
10 12 14 14 15 14 14 14 13 13 12 12 11 11 11 11 11 11 11 11 11 11 11 11 11 11 11 11 11 11 12 12 13 13 12 11 11 12 12 13 13 13 12
12 12 13 14 14 14 14 14 13 12 12 11 11 11 11 11 11 10 11 10 10 10 10 10 10 10 10 10 11 11 11 11 12 11 10 9 9 11 11 12 12 11 11
10 12 13 15 15 15 14 14 13 13 12 11 11 11 11 10 10 10 10 10 10 10 10 10 10 10 10 9 10 10 10 11 11 10 9 9 8 10 10 11 11 10 10
9 12 14 15 15 14 14 14 13 12 12 11 11 11 10 10 9 9 9 9 9 9 9 9 9 9 9 9 9 9 9 10 10 10 9 8 8 9 10 10 10 10 10
10 11 13 15 14 14 14 14 13 12 12 11 11 10 10 10 9 9 9 9 9 9 9 8 8 8 8 8 8 8 9 10 10 9 7 7 7 8 9 9 9 9 9
10 10 12 14 14 14 13 13 13 12 12 11 11 10 10 9 8 8 8 9 9 9 8 8 8 8 8 7 7 7 8 8 8 7 6 6 7 8 8 8 8 8 8
9 9 8 11 13 13 13 13 12 12 11 11 10 10 9 8 8 8 8 8 8 8 8 8 7 7 7 6 6 7 7 8 8 6 4 4 6 7 7 8 7 7 7
7 7 7 8 9 10 11 12 12 11 11 10 10 9 8 8 8 7 8 7 7 7 7 8 7 7 6 5 5 6 7 7 7 5 3 4 5 6 6 6 6 6 6
6 6 6 7 8 8 9 10 11 10 10 10 9 9 8 6 6 6 6 7 7 6 6 7 7 7 6 5 5 4 5 5 5 4 3 3 4 5 5 5 5 4 4
8 7 6 7 7 8 8 8 8 8 9 8 8 8 7 6 5 5 6 6 6 6 6 6 6 5 5 4 3 3 3 3 3 2 1 3 4 4 3 3 3 3 3
9 8 7 8 8 7 6 7 6 6 7 7 8 8 7 6 5 5 4 4 4 4 4 4 4 4 3 3 3 2 2 2 2 1 1 3 3 3 2 2 2 1 1
7 8 7 7 7 7 7 6 6 6 5 5 7 8 7 5 4 4 4 4 3 3 3 3 3 3 3 3 3 2 2 2 2 1 1 2 2 2 1 1 1 1 0
8 8 8 7 8 7 6 6 6 6 6 7 7 8 8 5 4 3 3 3 3 3 3 2 2 2 2 2 2 2 2 2 2 2 2 2 2 1 1 0 0 1 1
8 8 8 8 8 8 6 5 6 6 6 6 6 7 8 7 5 4 3 3 3 3 3 3 2 2 2 1 1 2 2 2 2 2 2 2 1 1 0 1 1 0 1
8 7 7 8 7 8 7 6 6 6 7 6 6 8 8 8 7 5 3 2 2 3 4 4 3 3 2 2 1 1 1 1 2 2 2 1 1 1 1 1 1 1 1
7 7 7 7 7 7 6 5 5 6 6 5 6 7 8 8 7 6 4 2 3 4 3 3 3 2 2 1 1 0 1 0 1 2 2 2 1 1 1 1 1 2 2
8 8 7 7 7 7 6 5 4 5 5 5 6 6 7 8 8 6 4 3 4 3 2 3 2 3 2 1 1 1 1 1 0 2 2 2 1 1 1 0 1 2 2
7 7 7 7 6 6 5 4 3 3 3 4 5 6 7 7 7 6 4 3 4 3 2 3 3 2 2 2 2 2 2 1 1 1 1 1 1 1 1 1 1 2 3
6 6 7 7 6 6 5 5 4 4 3 3 4 6 7 7 7 6 4 3 3 3 3 4 4 3 2 2 2 2 3 2 2 1 1 2 2 1 1 1 1 1 2
6 7 7 7 7 6 6 5 3 3 2 2 3 4 6 7 7 6 5 4 4 3 3 4 4 3 2 2 2 2 1 2 2 2 1 1 1 2 1 1 1 1 2
6 7 7 7 6 5 5 4 4 3 2 1 2 3 3 5 6 6 6 5 4 4 4 4 4 4 3 1 1 3 3 2 1 2 2 1 1 1 1 1 1 2 2
6 6 6 6 6 5 5 6 7 5 4 3 3 3 3 4 5 6 6 5 4 4 4 4 4 3 4 3 1 0 1 2 2 1 2 2 2 1 1 1 1 2 3
4 5 5 6 5 5 6 7 7 5 3 2 2 3 3 2 3 5 5 5 4 4 5 5 4 4 3 4 3 2 1 1 1 2 2 2 2 2 2 2 1 2 3
3 3 4 5 5 5 6 6 6 6 5 4 3 4 3 2 2 3 4 5 4 4 5 5 5 5 4 3 3 3 3 2 2 2 2 2 2 2 2 2 1 2 3
Wind_Direction
172 166 155 147 141 137 134 130 125 121 117 115 112 109 108 109 109 106 104 104 102 100 97 92 89 88 87 85 85 82 80 77 76 77 79 78 80 82 82 79 77 74 76
156 159 153 147 142 137 134 132 128 124 120 119 118 115 113 113 114 111 107 105 102 101 99 95 91 89 90 90 88 85 83 81 76 75 74 73 77 82 82 81 79 77 77
144 152 150 147 143 139 135 130 129 127 124 123 122 121 118 115 116 115 112 110 107 102 99 96 93 91 90 90 91 89 86 86 80 77 71 67 74 82 84 83 80 77 76
144 147 148 146 143 140 136 133 130 127 126 125 125 123 122 119 119 118 116 116 112 108 103 100 99 96 93 92 93 91 89 87 82 77 67 65 73 81 86 85 82 79 78
139 143 147 145 142 140 137 134 132 129 127 126 126 124 123 124 122 121 120 118 114 109 106 107 104 102 99 96 94 92 90 87 81 74 70 67 71 78 84 85 83 80 78
138 142 146 145 143 141 139 137 134 132 129 126 125 125 123 121 121 120 119 119 117 113 108 107 108 107 104 101 97 94 90 86 81 75 73 69 70 77 79 85 84 81 76
142 143 149 147 146 143 139 138 136 134 131 129 127 125 127 124 120 121 120 118 118 117 113 110 111 108 107 105 101 96 89 84 82 81 79 76 80 83 83 85 83 79 78
144 145 151 151 149 146 143 140 138 136 133 130 127 125 125 125 126 125 126 124 123 123 120 115 117 113 108 101 100 100 88 83 82 83 81 84 92 91 87 84 80 78 80
137 139 144 151 151 149 147 145 143 141 138 133 128 125 125 127 129 130 131 130 130 129 124 121 121 118 111 100 97 96 87 85 83 82 85 89 97 93 89 87 82 83 79
135 140 143 143 145 148 150 149 146 144 141 136 130 125 125 125 125 127 130 134 135 134 133 131 129 122 115 108 104 97 88 85 83 79 89 107 104 96 92 89 86 84 83
146 150 149 143 142 144 149 154 150 147 143 136 132 126 120 118 120 123 129 134 137 138 140 140 135 128 116 110 112 101 87 86 92 83 96 121 115 102 97 93 91 87 82
168 170 164 157 152 149 151 150 148 146 143 139 138 131 124 121 122 124 125 131 133 132 135 140 136 123 107 99 103 104 93 89 99 94 111 141 127 108 98 94 92 90 81
176 173 175 168 162 157 150 148 145 145 142 142 142 138 129 119 116 113 109 109 120 125 119 121 112 102 103 106 108 118 121 106 105 95 113 137 139 122 103 90 95 91 80
177 181 179 173 167 164 159 157 154 151 147 147 153 149 136 123 118 117 115 117 117 130 124 113 102 98 106 115 117 126 132 135 122 112 120 126 131 121 106 92 101 69 63
185 188 185 177 174 171 165 164 161 161 160 161 160 160 152 140 144 140 135 133 134 137 137 121 111 102 105 123 127 125 119 125 130 123 118 110 119 118 108 79 125 74 37
194 192 187 181 180 173 176 174 168 167 162 159 164 167 161 155 151 153 148 144 145 154 151 145 138 128 119 111 112 122 143 147 137 124 124 113 105 117 270 299 289 311 315
195 186 184 182 177 175 178 178 169 167 162 159 165 166 162 160 157 153 156 162 159 147 134 123 116 111 115 111 109 95 122 144 147 139 132 119 81 50 45 326 326 327 350
191 184 184 176 175 177 173 169 170 166 162 164 163 163 164 163 160 151 156 167 153 140 131 129 129 116 115 124 114 76 85 101 128 128 127 125 106 89 40 354 354 346 355
192 185 182 173 173 174 168 161 161 166 167 167 162 160 164 164 163 153 159 159 146 135 138 146 133 124 125 111 101 61 56 72 101 107 109 118 119 123 121 41 12 353 340
184 179 178 171 170 164 157 146 140 153 165 162 162 164 162 163 163 152 152 151 142 142 146 142 132 118 128 122 79 41 14 4 59 103 122 101 94 123 127 93 1 333 328
170 173 177 172 169 160 161 163 162 178 178 176 170 165 163 163 163 156 154 154 152 163 166 152 134 120 110 115 88 40 12 9 26 43 83 85 64 55 73 52 6 335 326
179 178 177 175 171 175 176 172 167 163 176 181 166 161 164 164 167 167 164 169 166 161 153 148 137 135 133 128 127 121 19 347 356 10 23 68 52 48 42 5 340 328 324
185 184 180 177 172 172 160 145 130 108 100 123 163 172 168 167 172 173 171 169 170 166 170 170 158 155 163 168 146 151 162 208 271 329 338 359 3 19 7 341 317 314 307
194 185 177 171 165 162 155 156 156 165 184 198 188 183 173 168 171 172 171 169 171 171 170 178 171 165 160 171 185 131 153 157 167 242 314 319 321 313 315 323 314 301 297
181 175 173 163 161 161 164 163 164 167 178 156 150 162 170 176 172 170 172 172 175 179 177 176 170 167 170 175 176 167 123 106 158 176 231 286 318 296 284 278 273 281 292
146 157 158 157 163 164 166 167 171 171 164 156 161 173 184 184 189 183 175 176 179 182 181 179 178 172 175 173 173 169 168 169 185 175 209 252 275 283 288 277 259 270 293
Height
1517 1520 1522 1523 1524 1525 1526 1528 1529 1530 1531 1531 1532 1533 1533 1534 1534 1535 1535 1535 1536 1536 1536 1537 1537 1537 1537 1537 1537 1537 1536 1536 1536 1536 1536 1536 1536 1536 1535 1535 1535 1535 1535
1516 1519 1521 1522 1524 1525 1526 1527 1529 1530 1531 1531 1532 1533 1534 1534 1535 1535 1536 1536 1536 1537 1537 1537 1537 1537 1537 1537 1537 1537 1537 1537 1537 1537 1537 1537 1537 1537 1537 1536 1536 1536 1536
1516 1518 1520 1522 1524 1525 1526 1527 1528 1529 1530 1531 1532 1533 1533 1534 1535 1535 1536 1536 1536 1537 1537 1537 1538 1538 1538 1538 1538 1538 1538 1538 1538 1538 1538 1538 1538 1538 1538 1538 1537 1537 1537
1516 1518 1520 1522 1523 1525 1526 1527 1528 1529 1530 1531 1532 1532 1533 1534 1535 1535 1536 1536 1537 1537 1538 1538 1538 1538 1538 1539 1539 1539 1539 1539 1539 1539 1538 1538 1538 1539 1538 1538 1538 1538 1538
1516 1518 1520 1521 1523 1524 1526 1527 1528 1529 1530 1531 1531 1532 1533 1534 1535 1535 1536 1536 1537 1537 1538 1538 1538 1538 1539 1539 1539 1539 1539 1539 1539 1539 1539 1539 1539 1539 1539 1539 1539 1539 1539
1516 1517 1519 1521 1523 1524 1525 1526 1527 1528 1529 1530 1531 1532 1533 1534 1534 1535 1536 1536 1537 1537 1537 1538 1538 1539 1539 1539 1539 1540 1540 1540 1540 1540 1540 1540 1540 1540 1540 1540 1539 1539 1539
1515 1517 1519 1520 1522 1524 1525 1526 1527 1528 1529 1530 1531 1531 1532 1533 1534 1535 1535 1536 1536 1537 1537 1538 1538 1539 1539 1539 1540 1540 1540 1540 1540 1540 1540 1540 1540 1540 1540 1540 1540 1539 1539
1515 1516 1518 1520 1521 1523 1524 1525 1526 1528 1528 1529 1530 1531 1532 1532 1533 1534 1535 1535 1536 1536 1537 1537 1538 1538 1539 1539 1540 1540 1540 1540 1540 1540 1540 1541 1541 1541 1540 1540 1540 1539 1539
1514 1516 1517 1518 1520 1522 1523 1524 1526 1527 1528 1528 1529 1530 1531 1532 1533 1533 1534 1535 1535 1536 1536 1537 1537 1538 1539 1539 1539 1540 1540 1540 1540 1540 1541 1541 1541 1541 1541 1540 1540 1539 1539
1514 1515 1516 1517 1519 1520 1522 1523 1525 1526 1527 1527 1528 1529 1530 1531 1532 1533 1533 1534 1535 1535 1536 1536 1537 1537 1538 1539 1539 1540 1540 1540 1540 1540 1541 1541 1541 1541 1541 1540 1540 1539 1539
1512 1513 1514 1515 1517 1519 1520 1522 1523 1524 1525 1526 1527 1528 1529 1530 1531 1532 1532 1533 1534 1534 1535 1535 1536 1536 1537 1538 1539 1539 1540 1540 1540 1540 1540 1541 1541 1541 1541 1540 1540 1539 1539
1509 1511 1512 1514 1515 1517 1518 1520 1521 1522 1524 1525 1526 1527 1528 1528 1530 1530 1531 1532 1533 1533 1534 1534 1535 1536 1537 1538 1538 1539 1539 1540 1540 1540 1540 1540 1540 1540 1540 1540 1539 1539 1539
1506 1508 1510 1511 1513 1514 1516 1517 1519 1520 1522 1523 1524 1525 1526 1527 1528 1529 1530 1531 1531 1532 1533 1533 1534 1535 1536 1537 1537 1538 1538 1539 1539 1539 1539 1539 1539 1539 1539 1539 1538 1538 1538
1504 1506 1508 1509 1510 1512 1513 1515 1516 1518 1519 1521 1522 1523 1524 1525 1526 1527 1528 1529 1530 1531 1532 1532 1533 1534 1534 1535 1536 1536 1537 1537 1537 1538 1538 1538 1538 1538 1538 1538 1537 1537 1537
1501 1503 1505 1506 1508 1509 1511 1512 1514 1515 1517 1518 1520 1521 1522 1523 1524 1525 1526 1528 1528 1529 1530 1530 1531 1532 1533 1534 1534 1535 1535 1536 1536 1536 1537 1537 1537 1537 1537 1536 1536 1536 1535
1498 1500 1501 1503 1505 1506 1508 1509 1511 1513 1514 1516 1517 1518 1520 1521 1522 1523 1524 1525 1526 1527 1528 1529 1529 1530 1531 1531 1532 1533 1533 1534 1534 1535 1535 1535 1535 1535 1535 1535 1534 1534 1533
1495 1496 1498 1500 1501 1503 1505 1506 1508 1510 1511 1513 1515 1516 1517 1519 1520 1521 1522 1523 1524 1525 1526 1526 1527 1528 1529 1529 1530 1530 1531 1531 1532 1533 1533 1533 1533 1533 1533 1533 1532 1532 1532
1491 1492 1494 1496 1498 1499 1501 1503 1505 1507 1508 1510 1512 1513 1515 1516 1517 1519 1520 1521 1522 1523 1523 1524 1524 1525 1526 1527 1528 1528 1529 1529 1530 1530 1531 1531 1531 1531 1531 1531 1530 1530 1530
1487 1489 1490 1492 1494 1496 1498 1500 1502 1504 1506 1507 1509 1510 1512 1513 1515 1516 1517 1518 1519 1520 1521 1521 1522 1523 1524 1524 1525 1526 1527 1527 1528 1528 1529 1529 1529 1529 1529 1529 1528 1528 1527
1483 1485 1487 1488 1490 1492 1494 1496 1499 1500 1502 1504 1506 1507 1509 1510 1512 1513 1515 1516 1517 1518 1518 1519 1520 1521 1521 1522 1523 1524 1525 1525 1525 1526 1526 1526 1526 1526 1526 1526 1526 1525 1525
1479 1481 1483 1484 1486 1488 1490 1492 1494 1496 1498 1500 1502 1504 1506 1508 1509 1510 1512 1513 1514 1515 1516 1516 1517 1518 1519 1519 1520 1521 1522 1522 1523 1523 1524 1524 1524 1524 1524 1524 1523 1523 1522
1474 1476 1478 1480 1482 1484 1486 1488 1490 1493 1495 1497 1499 1501 1503 1505 1506 1508 1509 1510 1511 1512 1513 1514 1514 1515 1516 1517 1518 1519 1520 1521 1520 1520 1521 1521 1521 1521 1521 1521 1521 1520 1519
1471 1473 1474 1476 1478 1480 1482 1485 1487 1490 1492 1494 1496 1497 1500 1502 1503 1505 1506 1507 1508 1509 1510 1511 1512 1512 1513 1515 1516 1517 1517 1516 1517 1518 1518 1519 1519 1519 1519 1519 1518 1517 1517
1468 1470 1471 1473 1475 1477 1479 1481 1483 1485 1487 1489 1492 1494 1496 1498 1500 1501 1503 1504 1505 1507 1507 1508 1509 1510 1511 1512 1513 1514 1515 1514 1515 1514 1515 1516 1516 1516 1516 1515 1515 1514 1514
1465 1467 1468 1470 1472 1474 1475 1477 1479 1482 1484 1487 1489 1491 1493 1495 1497 1498 1500 1501 1502 1504 1504 1506 1507 1508 1508 1509 1510 1510 1511 1511 1512 1512 1511 1512 1512 1513 1513 1512 1512 1511 1511
1462 1464 1465 1467 1469 1471 1472 1474 1476 1478 1481 1483 1485 1487 1489 1491 1493 1495 1496 1498 1499 1500 1501 1502 1504 1504 1505 1506 1507 1507 1508 1508 1508 1509 1508 1508 1508 1509 1509 1509 1509 1508 1507